Regional Weather Roundup
Issued by NWS State College, PA

Home | Current Version | Previous Version | Graphics & Text | Print | Product List | Glossary Off
Versions: 1 2 3 4 5 6 7 8 9 10 11 12 13 14 15 16 17 18 19 20 21 22 23 24 25 26 27 28 29 30 31 32 33 34 35 36 37 38 39 40 41 42 43 44 45 46 47 48 49 50

000
ASUS41 KCTP 201810
RWRCTP

REGIONAL WEATHER ROUNDUP
NATIONAL WEATHER SERVICE STATE COLLEGE PA
100 PM EST MON FEB 20 2017

Note: "fair" indicates few or no clouds below 12,000 feet with no
significant weather and/or obstructions to visibility.

* = STATION THAT DOES NOT REPORT PRECIPITATION /E.G. RAIN...SNOW...ETC/
    THUNDER OR FOG.

PAZ002>004-007>009-013>016-020>023-029>032-201900-
WESTERN PENNSYLVANIA

CITY           SKY/WX    TMP DP  RH WIND       PRES   REMARKS
ERIE           SUNNY     45  33  63 NE12      30.30F
MEADVILLE      SUNNY     51  30  44 CALM      30.26F
FRANKLIN*      SUNNY     52  30  43 CALM      30.26S
NEW CASTLE     FAIR      55  29  36 CALM      30.27F
BEAVER COUNTY  SUNNY     57  32  38 CALM      30.25
BUTLER*        SUNNY     55  30  38 CALM      30.26F
PITTSBURGH INT PTSUNNY   56  38  50 CALM      30.25F
PITTSBURGH     SUNNY     57  35  43 VRB3      30.24F
INDIANA*       SUNNY     52  32  46 CALM      30.27F
LATROBE        SUNNY     55  39  54 SW3       30.26F
WASHINGTON CO* SUNNY     54  41  62 CALM      30.28F
$$

PAZ004>006-010>012-017>019-024>028-033>037-041-042-045-046-049>053-201900-
CENTRAL PENNSYLVANIA

CITY           SKY/WX    TMP DP  RH WIND       PRES   REMARKS
BRADFORD       SUNNY     46  29  51 NW6       30.24F
DUBOIS         SUNNY     50  28  42 VRB6      30.23F
CLEARFIELD       N/A    N/A N/A N/A MISG      30.23F
JOHNSTOWN      SUNNY     52  32  46 W8        30.22F
ALTOONA        SUNNY     56  30  37 N8        30.23F
STATE COLLEGE  SUNNY     52  28  40 CALM      30.25F
WILLIAMSPORT   SUNNY     53  27  36 NW10      30.26F
SELINSGROVE    SUNNY     52  31  44 CALM      30.27F
FT INDIANTOWN  SUNNY     53  28  37 VRB7      30.23F
CAPITAL CITY   SUNNY     56  28  34 NW8       30.25F
HARRISBURG     MOSUNNY   57  30  35 N9G17     30.23F
YORK           SUNNY     57  32  38 N9        30.23F
$$

PAZ038>040-043-044-047-048-054-055-060>062-067>071-201900-
EASTERN PENNSYLVANIA

CITY           SKY/WX    TMP DP  RH WIND       PRES   REMARKS
SCRANTON       SUNNY     47  24  40 NW10      30.24F
MOUNT POCONO   SUNNY     41  22  46 NW13G24   30.19S
ALLENTOWN      SUNNY     53  26  35 NW10G17   30.23F
QUAKERTOWN*    CLEAR     50  27  40 NW10G17   30.23F
READING        SUNNY     55  32  41 VRB6      30.22F
LANCASTER      SUNNY     55  31  39 N7        30.23F
COATESVILLE    CLEAR     54  32  43 N9G15     30.22F
POTTSTOWN      SUNNY     54  29  38 NW14      30.23F
BLUE BELL      SUNNY     52  32  46 NW6G16    30.22S
DOYLESTOWN     SUNNY     56  26  31 N12G18    30.21F
WILLOW GROVE   NOT AVBL
NORTH PHILA    SUNNY     56  30  37 N13       30.23F
PHILADELPHIA   MOSUNNY   56  28  34 NW16G22   30.22F
$$




USA.gov is the U.S. government's official web portal to all federal, state and local government web resources and services.